Flag for Switzerland Weather past 2 weeks in Emmen, Lucerne, Switzerland

Now
39 °F

Chilly.


Feels Like: 39 °F
Forecast: 24 / 63 °F
Wind: 2 mph from Southwest

Location: Giswil


UV Index: 3 (Moderate)

Visibility: N/A


Pressure: 30.34 "Hg

Humidity: 71%

Dew point: 30 °F

Location of EmmenLocation

Historic Weather in Emmen

°F

Emmen temperature yesterday

Maximum temperature yesterday: 54 °F (at 4:00 PM)
Minimum temperature yesterday: 37 °F (at 11:00 PM)
Average temperature yesterday: 47 °F

Past Weeks' High & Low Weather Summary

 TemperatureHumidityPressure
High69 °F (Apr 2, 5:00 PM)100% (Apr 7, 4:00 AM)30.36 "Hg (Apr 7, 4:00 AM)
Low31 °F (Apr 16, 7:00 AM)30% (Apr 2, 5:00 PM)29.67 "Hg (Apr 3, 5:00 PM)
Average51 °F72%30.06 "Hg
* Reported Apr 1 9:00 PM — Apr 16 9:00 PM, Emmen, Weather by CustomWeather, © 2014

Note: Actual official high and low records may vary slightly from our data, if they occured in-between our weather recording intervals... More about our weather records

Advertising

Historic Weather Conditions — Data for Previous 24 hours

 ConditionsComfort  
Time TempWeatherWind HumidityBarometerVisibility
9:00 PM
Apr 16
49 °FCool.3 mph45%30.30 "HgN/A
8:00 PM51 °FCool.8 mph44%30.27 "HgN/A
7:00 PM53 °FCool.8 mph43%30.25 "HgN/A
6:00 PM55 °FCool.8 mph42%30.24 "HgN/A
5:00 PM55 °FCool.10 mph42%30.24 "HgN/A
4:00 PM56 °FRefreshingly cool.9 mph41%30.24 "HgN/A
3:00 PM55 °FCool.9 mph39%30.24 "HgN/A
2:00 PM54 °FCool.10 mph37%30.25 "HgN/A
1:00 PM53 °FCool.8 mph38%30.26 "HgN/A
12:00 PM50 °FCool.6 mph43%30.27 "HgN/A
10:00 AM44 °FQuite cool.2 mph54%30.32 "HgN/A
9:00 AM40 °FQuite cool.No wind66%30.33 "HgN/A
8:00 AM33 °FChilly.1 mph86%30.35 "HgN/A
7:00 AM31 °FChilly.2 mph88%30.35 "HgN/A
6:00 AM33 °FChilly.1 mph88%30.34 "HgN/A
5:00 AM34 °FChilly.2 mph81%30.34 "HgN/A
4:00 AM32 °FChilly.3 mph83%30.36 "HgN/A
3:00 AM35 °FChilly.3 mph74%30.35 "HgN/A
2:00 AM39 °FChilly.3 mph64%30.34 "HgN/A
11:00 PM
Apr 15
37 °FChilly.3 mph73%30.33 "HgN/A
Weather by CustomWeather, © 2014

See weather overview